This demonstration page uses our WeatherBlox Daily Observations layout. Learn more.

Left ArrowRight Arrow

39.92423, -83.80882

Hourly Observations for July 14, 2019

Temp ( °F °C ) Dew Point ( °F °C ) Humidity (%) Winds ( mph kmh ) Pressure ( in mb ) Visibility ( mi km ) Precip ( " mm )
12:56 am 00:56 Clear 73 22.8 66 18.9 79 79 WSW 3 6 30.07 1018 10 16.0934 N/A
1:56 am 01:56 Clear 72 22.2 66 18.9 82 82 WSW 5 7 30.08 1019 10 16.0934 N/A
2:56 am 02:56 Clear 72 22.2 65 18.3 79 79 W 6 9 30.06 1018 10 16.0934 N/A
3:56 am 03:56 Clear 72 22.2 65 18.3 79 79 WSW 7 11 30.06 1018 10 16.0934 N/A
4:56 am 04:56 Mostly Cloudy 71 21.7 66 18.9 84 84 W 5 7 30.07 1018 10 16.0934 N/A
5:56 am 05:56 Cloudy 72 22.2 66 18.9 82 82 NNW 6 9 30.09 1019 10 16.0934 N/A
6:56 am 06:56 Sunny 72 22.2 67 19.4 84 84 NW 5 7 30.11 1020 10 16.0934 N/A
7:56 am 07:56 Mostly Sunny 74 23.3 68 20 82 82 N 9 15 30.12 1020 10 16.0934 N/A
8:56 am 08:56 Sunny 75 23.9 68 20 79 79 E 8 13 30.11 1020 10 16.0934 N/A
9:56 am 09:56 Sunny 77 25 68 20 74 74 NNW 7 11 30.14 1021 10 16.0934 N/A
10:56 am 10:56 Sunny 81 27.2 67 19.4 62 62 N N/A 30.12 1020 10 16.0934 N/A
11:56 am 11:56 Sunny 83 28.3 69 20.6 63 63 W 5 7 30.14 1021 10 16.0934 N/A
12:56 pm 12:56 Sunny 84 28.9 71 21.7 65 65 W 9 15 30.14 1021 10 16.0934 N/A
1:56 pm 13:56 Sunny 85 29.4 71 21.7 63 63 VRB 5 7 30.12 1020 10 16.0934 N/A
2:56 pm 14:56 Mostly Sunny 88 31.1 71 21.7 57 57 W 6 9 30.11 1020 10 16.0934 N/A
3:56 pm 15:56 Mostly Cloudy 88 31.1 70 21.1 55 55 W 7 11 30.1 1019 10 16.0934 N/A
4:56 pm 16:56 Mostly Cloudy 86 30 71 21.7 61 61 W 7 11 30.09 1019 10 16.0934 N/A
5:56 pm 17:56 Mostly Cloudy 84 28.9 71 21.7 65 65 N N/A 30.08 1019 10 16.0934 N/A
6:56 pm 18:56 Cloudy with Thunderstorms 75 23.9 71 21.7 88 88 S 6 9 30.1 1019 6 9.65604 N/A
7:17 pm 19:17 Mostly Cloudy with Light Thunderstorms 79 26 70 21 74 74 W 5 7 30.06 1018 10 16.0934 0.09 2.286
7:52 pm 19:52 Mostly Sunny 75 24 73 23 94 94 E 5 7 30.07 1018 10 16.0934 0.09 2.286
7:56 pm 19:56 Mostly Sunny 75 23.9 73 22.8 94 94 N N/A 30.09 1019 10 16.0934 0.09 2.286
8:56 pm 20:56 Cloudy 75 23.9 74 23.3 96 96 WSW 5 7 30.12 1020 10 16.0934 N/A
9:56 pm 21:56 Mostly Clear 75 23.9 73 22.8 94 94 WNW 9 15 30.12 1020 10 16.0934 N/A
10:56 pm 22:56 Clear 74 23.3 70 21.1 88 88 WNW 7 11 30.12 1020 10 16.0934 N/A
11:56 pm 23:56 Clear 72 22.2 71 21.7 97 97 W 5 7 30.12 1020 10 16.0934 N/A

Powered by AerisWeather